This is the latest recevied weather packets stored in our database for station/object OE6JUE. If no packets are shown the sender has not sent any weather packets the latest 10 day(s).
| Time | Temp. | Humidity | Pressure | Rain* | Wind** | Luminosity | Snow |
|---|---|---|---|---|---|---|---|
| 1777912790 | 24.44° C | 28% | 1013.5 hPa | 0 mm | - | - | - |
| 1777912490 | 25° C | 27% | 1013.7 hPa | 0 mm | - | - | - |
| 1777912189 | 25° C | 26% | 1013.5 hPa | 0 mm | - | - | - |
| 1777911891 | 25.56° C | 26% | 1013.6 hPa | 0 mm | - | - | - |
| 1777911590 | 26.11° C | 26% | 1013.6 hPa | 0 mm | - | - | - |
| 1777911290 | 26.11° C | 26% | 1013.6 hPa | 0 mm | - | - | - |
| 1777910990 | 26.11° C | 26% | 1013.7 hPa | 0 mm | - | - | - |
| 1777910690 | 26.11° C | 26% | 1013.7 hPa | 0 mm | - | - | - |
| 1777910390 | 26.11° C | 25% | 1013.8 hPa | 0 mm | - | - | - |
| 1777910090 | 26.67° C | 25% | 1013.6 hPa | 0 mm | - | - | - |
| 1777909790 | 27.22° C | 24% | 1013.7 hPa | 0 mm | - | - | - |
| 1777909490 | 27.78° C | 21% | 1013.8 hPa | 0 mm | - | - | - |
| 1777909190 | 28.33° C | 20% | 1013.8 hPa | 0 mm | - | - | - |
| 1777908890 | 28.33° C | 21% | 1014.1 hPa | 0 mm | - | - | - |
| 1777908590 | 27.78° C | 21% | 1013.9 hPa | 0 mm | - | - | - |
| 1777908289 | 27.78° C | 21% | 1013.9 hPa | 0 mm | - | - | - |
| 1777907990 | 27.22° C | 24% | 1013.9 hPa | 0 mm | - | - | - |
| 1777907690 | 27.22° C | 24% | 1014.1 hPa | 0 mm | - | - | - |
| 1777907390 | 27.78° C | 21% | 1014.1 hPa | 0 mm | - | - | - |
| 1777907090 | 27.78° C | 21% | 1014.1 hPa | 0 mm | - | - | - |
| 1777906789 | 28.89° C | 21% | 1014.2 hPa | 0 mm | - | - | - |
| 1777906490 | 28.33° C | 21% | 1014.2 hPa | 0 mm | - | - | - |
| 1777906190 | 27.78° C | 21% | 1014.4 hPa | 0 mm | - | - | - |
| 1777905890 | 28.33° C | 21% | 1014.4 hPa | 0 mm | - | - | - |
| 1777905589 | 28.33° C | 21% | 1014.4 hPa | 0 mm | - | - | - |
* Rain latest hour (hover to see other rain measurements)
** Current wind speed in m/s (hover to see current wind gust speed)